Escanaba, MI

6:13 AM EDT on May 20, 2018 (GMT -0400)
Delta County

Weather History for KESC - November, 2012

Change the Weather History Date:

Thursday, November 15, 2012

  Actual Average Record
Temperature  
Mean Temperature 40 °F -  
Max Temperature 46 °F 41 °F 66 °F (2001)
Min Temperature 33 °F 28 °F 10 °F (2014)
Degree Days  
Heating Degree Days 26    
Moisture  
Dew Point 31 °F    
Average Humidity 67    
Maximum Humidity 81    
Minimum Humidity 57    
Precipitation  
Precipitation 0.00 in - - ()
Sea Level Pressure  
Sea Level Pressure 30.26 in    
Wind  
Wind Speed 10 mph (SW)    
Max Wind Speed 17 mph    
Max Gust Speed 22 mph    
Visibility 10 miles    
Events      
Averages and records for this station are not official NWS values.
T = Trace of Precipitation, MM = Missing Value Source: NWS Daily Summary

Daily Weather History Graph

Daily Weather History Graph

Search for Another Location

Airport or City:

Astronomy

Nov. 15, 2012 Rise Set
Actual Time 7:48 AM EST 5:16 PM EST
Civil Twilight 7:16 AM EST 5:49 PM EST
Nautical Twilight 6:40 AM EST 6:25 PM EST
Astronomical Twilight 6:05 AM EST 7:00 PM EST
Moon 9:47 AM EST (11/15) 7:04 PM EST (11/15)
Length of Visible Light 10h 32m
Length of Day
9h 28m
Waxing Crescent, 5% of the Moon is Illuminated
Nov 15
Waxing Crescent
Nov 20
First Quarter
Nov 28
Full
Dec 6
Last Quarter
Dec 13
New

Hourly Weather History & Observations

Time (EST) Temp. Windchill Dew Point Humidity Pressure Visibility Wind Dir Wind Speed Gust Speed Precip Events Conditions
12:15 AM 42.8 °F 36.6 °F 30.2 °F 61% 30.29 in 10.0 mi SW 11.5 mph 17.3 mph N/A   Overcast
12:35 AM 41.0 °F 34.7 °F 28.4 °F 61% 30.30 in 10.0 mi SSW 10.4 mph 19.6 mph N/A   Mostly Cloudy
12:55 AM 41.0 °F 35.2 °F 28.4 °F 61% 30.29 in 10.0 mi SW 9.2 mph - N/A   Mostly Cloudy
1:15 AM 41.0 °F 34.3 °F 28.4 °F 61% 30.29 in 10.0 mi SW 11.5 mph 17.3 mph N/A   Mostly Cloudy
1:35 AM 39.2 °F 32.5 °F 28.4 °F 65% 30.29 in 10.0 mi SSW 10.4 mph - N/A   Mostly Cloudy
1:55 AM 39.2 °F 33.0 °F 28.4 °F 65% 30.28 in 10.0 mi SW 9.2 mph - N/A   Partly Cloudy
2:15 AM 39.2 °F 32.5 °F 28.4 °F 65% 30.28 in 10.0 mi SW 10.4 mph - N/A   Clear
2:35 AM 39.2 °F 33.0 °F 28.4 °F 65% 30.28 in 10.0 mi SSW 9.2 mph - N/A   Clear
2:55 AM 39.2 °F 32.5 °F 28.4 °F 65% 30.28 in 10.0 mi SSW 10.4 mph - N/A   Clear
3:15 AM 39.2 °F 32.0 °F 28.4 °F 65% 30.27 in 10.0 mi SSW 11.5 mph - N/A   Partly Cloudy
3:35 AM 39.2 °F 32.0 °F 28.4 °F 65% 30.27 in 10.0 mi SSW 11.5 mph 18.4 mph N/A   Partly Cloudy
3:55 AM 39.2 °F 31.6 °F 28.4 °F 65% 30.27 in 10.0 mi SSW 12.7 mph 18.4 mph N/A   Scattered Clouds
4:15 AM 39.2 °F 32.5 °F 30.2 °F 70% 30.27 in 10.0 mi SW 10.4 mph - N/A   Mostly Cloudy
4:35 AM 39.2 °F 33.0 °F 30.2 °F 70% 30.26 in 10.0 mi SW 9.2 mph - N/A   Scattered Clouds
4:55 AM 39.2 °F 33.6 °F 30.2 °F 70% 30.26 in 10.0 mi SSW 8.1 mph - N/A   Scattered Clouds
5:35 AM 41.0 °F 35.2 °F 32.0 °F 70% 30.26 in 10.0 mi SSW 9.2 mph 18.4 mph N/A   Partly Cloudy
5:55 AM 41.0 °F 34.7 °F 32.0 °F 70% 30.26 in 10.0 mi SSW 10.4 mph 16.1 mph N/A   Clear
6:15 AM 41.0 °F 34.3 °F 30.2 °F 65% 30.25 in 10.0 mi SSW 11.5 mph - N/A   Clear
6:35 AM 41.0 °F 34.3 °F 30.2 °F 65% 30.25 in 10.0 mi SSW 11.5 mph - N/A   Clear
6:55 AM 39.2 °F 32.5 °F 32.0 °F 75% 30.24 in 10.0 mi SSW 10.4 mph - N/A   Clear
7:15 AM 39.2 °F 32.0 °F 32.0 °F 75% 30.24 in 10.0 mi SSW 11.5 mph 16.1 mph N/A   Partly Cloudy
7:35 AM 39.2 °F 33.0 °F 32.0 °F 75% 30.24 in 10.0 mi SSW 9.2 mph 16.1 mph N/A   Partly Cloudy
7:55 AM 39.2 °F 31.6 °F 32.0 °F 75% 30.24 in 10.0 mi SSW 12.7 mph 16.1 mph N/A   Clear
8:15 AM 39.2 °F 32.5 °F 32.0 °F 75% 30.24 in 10.0 mi SSW 10.4 mph - N/A   Scattered Clouds
8:35 AM 41.0 °F 33.9 °F 32.0 °F 70% 30.24 in 10.0 mi SSW 12.7 mph 18.4 mph N/A   Overcast
8:55 AM 41.0 °F 33.9 °F 30.2 °F 65% 30.24 in 10.0 mi SSW 12.7 mph 17.3 mph N/A   Mostly Cloudy
9:15 AM 41.0 °F 33.5 °F 30.2 °F 65% 30.25 in 10.0 mi SSW 13.8 mph - N/A   Overcast
9:35 AM 41.0 °F 33.9 °F 30.2 °F 65% 30.24 in 10.0 mi SSW 12.7 mph 20.7 mph N/A   Overcast
9:55 AM 41.0 °F 34.7 °F 30.2 °F 65% 30.25 in 10.0 mi SSW 10.4 mph - N/A   Overcast
10:15 AM 41.0 °F 34.3 °F 28.4 °F 61% 30.25 in 10.0 mi SSW 11.5 mph - N/A   Overcast
10:35 AM 42.8 °F 37.5 °F 28.4 °F 57% 30.25 in 10.0 mi SW 9.2 mph 18.4 mph N/A   Overcast
10:55 AM 42.8 °F 38.0 °F 30.2 °F 61% 30.25 in 10.0 mi SSW 8.1 mph 16.1 mph N/A   Overcast
11:15 AM 42.8 °F 38.0 °F 30.2 °F 61% 30.25 in 10.0 mi SSW 8.1 mph - N/A   Overcast
11:35 AM 42.8 °F 36.6 °F 30.2 °F 61% 30.25 in 10.0 mi South 11.5 mph - N/A   Overcast
11:55 AM 42.8 °F 37.5 °F 30.2 °F 61% 30.24 in 10.0 mi SSW 9.2 mph 17.3 mph N/A   Overcast
12:15 PM 42.8 °F 36.6 °F 30.2 °F 61% 30.24 in 10.0 mi SSW 11.5 mph 17.3 mph N/A   Overcast
12:35 PM 42.8 °F 36.2 °F 30.2 °F 61% 30.24 in 10.0 mi SSW 12.7 mph 18.4 mph N/A   Overcast
12:55 PM 42.8 °F 36.2 °F 30.2 °F 61% 30.23 in 10.0 mi SW 12.7 mph 17.3 mph N/A   Overcast
1:15 PM 42.8 °F 35.8 °F 33.8 °F 70% 30.22 in 10.0 mi SSW 13.8 mph 17.3 mph N/A   Overcast
1:35 PM 44.6 °F 37.2 °F 33.8 °F 66% 30.21 in 10.0 mi SSW 17.3 mph 21.9 mph N/A   Overcast
1:55 PM 44.6 °F 38.8 °F 33.8 °F 66% 30.22 in 10.0 mi South 11.5 mph - N/A   Overcast
2:15 PM 44.6 °F 39.2 °F 33.8 °F 66% 30.21 in 10.0 mi SSW 10.4 mph - N/A   Overcast
2:35 PM 44.6 °F 38.4 °F 33.8 °F 66% 30.21 in 10.0 mi South 12.7 mph 19.6 mph N/A   Overcast
2:55 PM 44.6 °F 37.8 °F 33.8 °F 66% 30.20 in 10.0 mi SSW 15.0 mph - N/A   Overcast
3:15 PM 44.6 °F 38.4 °F 33.8 °F 66% 30.20 in 10.0 mi SSW 12.7 mph 18.4 mph N/A   Overcast
3:35 PM 44.6 °F 38.4 °F 33.8 °F 66% 30.20 in 10.0 mi SSW 12.7 mph - N/A   Overcast
3:55 PM 46.4 °F 41.1 °F 33.8 °F 62% 30.20 in 10.0 mi SSW 11.5 mph 18.4 mph N/A   Overcast
4:15 PM 46.4 °F 40.1 °F 33.8 °F 62% 30.20 in 10.0 mi SSW 15.0 mph - N/A   Overcast
4:35 PM 46.4 °F 40.7 °F 33.8 °F 62% 30.21 in 10.0 mi SSW 12.7 mph 18.4 mph N/A   Overcast
4:55 PM 44.6 °F 39.2 °F 32.0 °F 61% 30.21 in 10.0 mi SSW 10.4 mph - N/A   Mostly Cloudy
5:15 PM 44.6 °F 40.7 °F 32.0 °F 61% 30.22 in 10.0 mi SSW 6.9 mph - N/A   Partly Cloudy
5:35 PM 42.8 °F 39.3 °F 32.0 °F 66% 30.22 in 10.0 mi SSW 5.8 mph - N/A   Scattered Clouds
5:55 PM 42.8 °F 39.3 °F 33.8 °F 70% 30.23 in 10.0 mi SSW 5.8 mph - N/A   Overcast
6:15 PM 42.8 °F 39.3 °F 32.0 °F 66% 30.23 in 10.0 mi SSW 5.8 mph - N/A   Mostly Cloudy
6:35 PM 42.8 °F 39.3 °F 30.2 °F 61% 30.24 in 10.0 mi SW 5.8 mph - N/A   Mostly Cloudy
6:55 PM 42.8 °F 39.3 °F 30.2 °F 61% 30.24 in 10.0 mi SW 5.8 mph - N/A   Partly Cloudy
7:15 PM 41.0 °F 38.0 °F 30.2 °F 65% 30.25 in 10.0 mi WSW 4.6 mph - N/A   Scattered Clouds
7:35 PM 39.2 °F 35.9 °F 30.2 °F 70% 30.26 in 10.0 mi SW 4.6 mph - N/A   Partly Cloudy
7:55 PM 39.2 °F 35.9 °F 28.4 °F 65% 30.26 in 10.0 mi SW 4.6 mph - N/A   Clear
8:15 PM 39.2 °F 37.0 °F 30.2 °F 70% 30.27 in 10.0 mi WSW 3.5 mph - N/A   Clear
8:35 PM 39.2 °F 35.0 °F 30.2 °F 70% 30.30 in 10.0 mi NNW 5.8 mph 16.1 mph N/A   Scattered Clouds
8:55 PM 37.4 °F - 28.4 °F 70% 30.30 in 10.0 mi Calm Calm - N/A   Partly Cloudy
9:15 PM 39.2 °F 35.9 °F 28.4 °F 65% 30.31 in 10.0 mi North 4.6 mph - N/A   Clear
9:35 PM 37.4 °F 34.9 °F 30.2 °F 75% 30.31 in 10.0 mi North 3.5 mph - N/A   Clear
9:55 PM 37.4 °F 32.8 °F 30.2 °F 75% 30.32 in 10.0 mi NNW 5.8 mph - N/A   Clear
10:15 PM 35.6 °F 32.8 °F 28.4 °F 75% 30.33 in 10.0 mi NNW 3.5 mph - N/A   Clear
10:35 PM 35.6 °F - 28.4 °F 75% 30.33 in 10.0 mi Calm Calm - N/A   Clear
10:55 PM 33.8 °F - 28.4 °F 81% 30.34 in 10.0 mi Calm Calm - N/A   Clear
11:15 PM 33.8 °F 29.6 °F 28.4 °F 81% 30.34 in 10.0 mi NNW 4.6 mph - N/A   Clear
11:35 PM 33.8 °F 28.6 °F 26.6 °F 75% 30.35 in 10.0 mi NNW 5.8 mph - N/A   Clear
11:55 PM 35.6 °F 29.9 °F 26.6 °F 70% 30.36 in 10.0 mi NNW 6.9 mph - N/A   Clear